Weather in Desná

Czech Republic     50°45′51″N   15°17′58″E
temp.,
°C
wind,
m/s
gust,
m/s
humid.,
%
clouds,
%
prec.,
mm/h
press.,
hPa
HPBL,
m
11 may, tue
tue1123:00+14se3109159 0.0 1011345
02:00+12ese369516 0.0 1010138
05:00+11ese36922 0.0 1009147
08:00+15se410695 0.0 1008447
11:00+19se595368 0.0 1007741
14:00+21sse81347100 0.0 10051259
17:00+21sse713605 0.0 10041479
20:00+17se7157156 0.0 1003872
12 may, wed
wed1223:00+16se5146941 0.0 1004775
02:00+13s41099100 0.0 1005548
05:00+12s1299100 0.3 1006265
08:00+12wnw1298100 0.6 1008215
11:00+12nnw2293100 0.1 1008376
14:00+14nnw338299 0.1 1008600
17:00+14n348598 0.2 1006578
20:00+12n3696100 0.4 1005413
13 may, thu
thu1323:00+12n2599100 3.3 1004304
02:00+11n2799100 10.1 1003564
05:00+11nne1499100 0.6 1001344
08:00+12ne1392100 0.9 1000327
11:00+14sw018095 0.4 999679
14:00+11sw1298100 2.4 999282
17:00+11ene0198100 1.8 1000153
20:00+10e019676 2.2 100031
14 may, fri
fri1423:00+8nw129986 0.1 100166
02:00+8nw2499100 0.1 1001227
05:00+8nw239899 0.0 1002284
08:00+8wnw2598100 0.1 1003514
11:00+8w2598100 0.2 1005522
14:00+8w2696100 1.3 1006675
17:00+7w2696100 0.4 1007697
20:00+7wsw159694 0.4 1008475
15 may, sat
sat1523:00+6sw119866 0.0 100939
02:00+5ssw139884 0.1 1010176
05:00+4se019825 0.0 101015
08:00+8wsw249066 0.0 1010481
11:00+10wsw2376100 0.3 1010987
14:00+12sw136570 0.5 1009946
17:00+13w2364100 0.6 10081097
20:00+10se118199 1.0 100811